User: anonymous   Login
Location: *
(37.5724°S, 58.0067°E)
Time: 07:00:25
(UTC+00:00)
Language:

USA 229 - Orbit

View from above orbital plane
View from above orbital plane
View from above satellite
View from above satellite

Ground track
Ground track

The orbit data is extracted from the following two-line orbital elements,

1 37386U 11014A   20335.18991916 0.00000000  00000-0  00000-0 0    04
2 37386  63.4435  44.3222 0185219 358.5276   1.4067 13.40810872    05
Epoch (UTC): 30 November 2020 04:33:29
Eccentricity: 0.0185219
inclination: 63.4435°
perigee height: 967 km
apogee height: 1245 km
right ascension of ascending node: 44.3222°
argument of perigee: 358.5276°
revolutions per day: 13.40810872
mean anomaly at epoch: 1.4067°
orbit number at epoch: 0

The dashed part of the orbit path shows where the satellite is in the earth's shadow,  

DLR